| time (UTC) | temp F | wind direction | speed MPH | gust MPH | rain 1hr in | rain 24hr in | rain mn in | humidity % | barometer mb |
| 20260903163015 | 63 | 269 | 2.0 | 9.0 | 0.00 | 0.00 | 0.00 | 35 | 1005.6 |
| 20260903161506 | 62 | 218 | 1.0 | 6.0 | 0.00 | 0.00 | 0.00 | 37 | 1005.7 |
| 20260903160009 | 61 | 218 | 2.0 | 6.0 | 0.00 | 0.00 | 0.00 | 37 | 1005.9 |
| 20260903154602 | 59 | 238 | 0.0 | 3.0 | 0.00 | 0.00 | 0.00 | 41 | 1006.0 |
| 20260903153058 | 58 | 238 | 0.0 | 2.0 | 0.00 | 0.00 | 0.00 | 47 | 1006.3 |
| 20260903151607 | 58 | 238 | 0.0 | 4.0 | 0.00 | 0.00 | 0.00 | 41 | 1006.3 |
| 20260903144553 | 56 | 238 | 0.0 | 1.0 | 0.00 | 0.00 | 0.00 | 47 | 1006.4 |
| 20260903143056 | 56 | 238 | 0.0 | 8.0 | 0.00 | 0.00 | 0.00 | 42 | 1006.3 |
| 20260903141548 | 56 | 268 | 0.0 | 12.0 | 0.00 | 0.00 | 0.00 | 42 | 1006.2 |
| 20260903140045 | 56 | 267 | 2.0 | 6.0 | 0.00 | 0.00 | 0.00 | 40 | 1006.1 |
| 20260903134551 | 56 | 331 | 3.0 | 8.0 | 0.00 | 0.00 | 0.00 | 41 | 1006.1 |
| 20260903133041 | 56 | 51 | 3.0 | 10.0 | 0.00 | 0.00 | 0.00 | 43 | 1006.0 |
| 20260903131540 | 55 | 146 | 0.0 | 5.0 | 0.00 | 0.00 | 0.00 | 42 | 1006.1 |
| 20260903130040 | 55 | 146 | 0.0 | 3.0 | 0.00 | 0.00 | 0.00 | 43 | 1006.1 |
| 20260903124538 | 54 | 271 | 0.0 | 1.0 | 0.00 | 0.00 | 0.00 | 46 | 1006.3 |
| 20260903123036 | 55 | 271 | 0.0 | 0.0 | 0.00 | 0.00 | 0.00 | 45 | 1006.2 |
| 20260903121533 | 55 | 271 | 0.0 | 4.0 | 0.00 | 0.00 | 0.00 | 45 | 1006.6 |
| 20260903120036 | 55 | 277 | 0.0 | 1.0 | 0.00 | 0.00 | 0.00 | 45 | 1006.8 |
| 20260903114532 | 56 | 277 | 0.0 | 3.0 | 0.00 | 0.00 | 0.00 | 45 | 1006.7 |
| 20260903113032 | 56 | 277 | 0.0 | 3.0 | 0.00 | 0.00 | 0.00 | 44 | 1006.8 |
| 20260903111527 | 56 | 277 | 0.0 | 0.0 | 0.00 | 0.00 | 0.00 | 44 | 1007.0 |
| 20260903110026 | 57 | 277 | 0.0 | 4.0 | 0.00 | 0.00 | 0.00 | 44 | 1007.2 |
| 20260903104527 | 57 | 277 | 0.0 | 2.0 | 0.00 | 0.00 | 0.00 | 42 | 1007.2 |
| 20260903103024 | 58 | 277 | 0.0 | 2.0 | 0.00 | 0.00 | 0.00 | 41 | 1007.3 |
| 20260903101527 | 58 | 327 | 1.0 | 4.0 | 0.00 | 0.00 | 0.00 | 40 | 1007.3 |
| 20260903100022 | 58 | 335 | 0.0 | 8.0 | 0.00 | 0.00 | 0.00 | 39 | 1007.2 |
| 20260903094522 | 59 | 40 | 0.0 | 9.0 | 0.00 | 0.00 | 0.00 | 39 | 1007.2 |
| 20260903093028 | 58 | 32 | 0.0 | 7.0 | 0.00 | 0.00 | 0.00 | 37 | 1007.3 |
| 20260903091518 | 59 | 44 | 0.0 | 11.0 | 0.00 | 0.00 | 0.00 | 37 | 1007.6 |
| 20260903090017 | 58 | 37 | 1.0 | 8.0 | 0.00 | 0.00 | 0.00 | 37 | 1007.7 |
| 20260903084517 | 58 | 40 | 3.0 | 14.0 | 0.00 | 0.00 | 0.00 | 38 | 1007.7 |
| 20260903083015 | 58 | 35 | 6.0 | 16.0 | 0.00 | 0.00 | 0.00 | 38 | 1007.6 |
| 20260903081534 | 57 | 39 | 8.0 | 17.0 | 0.00 | 0.00 | 0.00 | 40 | 1007.8 |
| 20260903080011 | 57 | 50 | 8.0 | 16.0 | 0.00 | 0.00 | 0.00 | 40 | 1007.8 |
| 20260903074509 | 57 | 45 | 2.0 | 11.0 | 0.00 | 0.00 | 0.00 | 38 | 1007.8 |
| 20260903073009 | 57 | 46 | 4.0 | 11.0 | 0.00 | 0.00 | 0.00 | 37 | 1007.9 |
| 20260903071505 | 57 | 36 | 0.0 | 3.0 | 0.00 | 0.00 | 0.00 | 39 | 1008.0 |
| 20260903070001 | 58 | 36 | 1.0 | 11.0 | 0.00 | 0.00 | 0.00 | 38 | 1007.9 |
| 20260903064500 | 59 | 28 | 1.0 | 7.0 | 0.00 | 0.00 | 0.00 | 27 | 1007.7 |
| 20260903063100 | 59 | 26 | 0.0 | 3.0 | 0.00 | 0.00 | 0.00 | 26 | 1007.7 |
| 20260903061608 | 60 | 15 | 0.0 | 12.0 | 0.00 | 0.00 | 0.00 | 26 | 1007.9 |
| 20260903060059 | 60 | 340 | 3.0 | 13.0 | 0.00 | 0.00 | 0.00 | 26 | 1007.9 |
| 20260903054557 | 60 | 360 | 4.0 | 21.0 | 0.00 | 0.00 | 0.00 | 23 | 1007.8 |
| 20260903053055 | 60 | 44 | 8.0 | 19.0 | 0.00 | 0.00 | 0.00 | 23 | 1007.7 |
| 20260903051555 | 60 | 10 | 7.0 | 17.0 | 0.00 | 0.00 | 0.00 | 24 | 1008.0 |
| 20260903050053 | 59 | 31 | 3.0 | 10.0 | 0.00 | 0.00 | 0.00 | 27 | 1008.3 |
| 20260903044554 | 58 | 105 | 1.0 | 8.0 | 0.00 | 0.00 | 0.00 | 33 | 1008.2 |
| 20260903043053 | 57 | 144 | 0.0 | 3.0 | 0.00 | 0.00 | 0.00 | 47 | 1008.3 |
| 20260903041551 | 57 | 144 | 1.0 | 4.0 | 0.00 | 0.00 | 0.00 | 48 | 1008.2 |
| 20260903040051 | 58 | 10 | 1.0 | 5.0 | 0.00 | 0.00 | 0.00 | 46 | 1008.1 |
| 20260903034550 | 59 | 10 | 0.0 | 1.0 | 0.00 | 0.00 | 0.00 | 41 | 1008.0 |
| 20260903033049 | 59 | 10 | 0.0 | 6.0 | 0.00 | 0.00 | 0.00 | 38 | 1007.9 |
| 20260903031554 | 59 | 351 | 4.0 | 10.0 | 0.00 | 0.00 | 0.00 | 38 | 1007.6 |
| 20260903030048 | 60 | 38 | 3.0 | 10.0 | 0.00 | 0.00 | 0.00 | 40 | 1007.7 |
| 20260903024550 | 60 | 142 | 1.0 | 4.0 | 0.00 | 0.00 | 0.00 | 39 | 1007.7 |
| 20260903023101 | 61 | 146 | 0.0 | 5.0 | 0.00 | 0.00 | 0.00 | 39 | 1007.6 |
| 20260903021549 | 62 | 72 | 0.0 | 8.0 | 0.00 | 0.00 | 0.00 | 38 | 1007.7 |
| 20260903020046 | 62 | 108 | 0.0 | 3.0 | 0.00 | 0.00 | 0.00 | 38 | 1007.6 |
| 20260903014547 | 63 | 113 | 1.0 | 7.0 | 0.00 | 0.00 | 0.00 | 35 | 1007.4 |
| 20260903013047 | 64 | 121 | 0.0 | 3.0 | 0.00 | 0.00 | 0.00 | 35 | 1007.4 |
| 20260903011545 | 64 | 37 | 4.0 | 9.0 | 0.00 | 0.00 | 0.00 | 33 | 1007.3 |
| 20260903010044 | 65 | 36 | 5.0 | 10.0 | 0.00 | 0.00 | 0.00 | 30 | 1007.2 |
| 20260903004544 | 66 | 167 | 0.0 | 5.0 | 0.00 | 0.00 | 0.00 | 32 | 1007.0 |
| 20260903003049 | 66 | 39 | 0.0 | 8.0 | 0.00 | 0.00 | 0.00 | 33 | 1007.1 |
| 20260903001543 | 67 | 32 | 1.0 | 9.0 | 0.00 | 0.00 | 0.00 | 32 | 1007.1 |
| 20260903000042 | 67 | 355 | 1.0 | 6.0 | 0.00 | 0.00 | 0.00 | 33 | 1007.0 |
| 20260902234541 | 67 | 28 | 3.0 | 8.0 | 0.00 | 0.00 | 0.00 | 33 | 1007.0 |
| 20260902233040 | 67 | 131 | 1.0 | 10.0 | 0.00 | 0.00 | 0.00 | 32 | 1006.9 |
| 20260902231552 | 67 | 25 | 1.0 | 5.0 | 0.00 | 0.00 | 0.00 | 31 | 1007.0 |
| 20260902230040 | 66 | 28 | 4.0 | 11.0 | 0.00 | 0.00 | 0.00 | 32 | 1007.0 |
| 20260902224537 | 66 | 155 | 0.0 | 6.0 | 0.00 | 0.00 | 0.00 | 33 | 1007.0 |
| 20260902223036 | 65 | 28 | 0.0 | 7.0 | 0.00 | 0.00 | 0.00 | 31 | 1007.1 |
| 20260902221545 | 66 | 32 | 0.0 | 8.0 | 0.00 | 0.00 | 0.00 | 32 | 1007.0 |
| 20260902220036 | 66 | 360 | 4.0 | 11.0 | 0.00 | 0.00 | 0.00 | 32 | 1007.0 |
| 20260902214538 | 66 | 124 | 0.0 | 3.0 | 0.00 | 0.00 | 0.00 | 33 | 1007.1 |
| 20260902213036 | 66 | 129 | 0.0 | 4.0 | 0.00 | 0.00 | 0.00 | 33 | 1007.4 |
| 20260902211535 | 66 | 39 | 0.0 | 13.0 | 0.00 | 0.00 | 0.00 | 33 | 1007.7 |
| 20260902210037 | 66 | 117 | 0.0 | 8.0 | 0.00 | 0.00 | 0.00 | 34 | 1007.5 |
| 20260902204530 | 66 | 42 | 1.0 | 11.0 | 0.00 | 0.00 | 0.00 | 35 | 1007.5 |
| 20260902203028 | 65 | 38 | 1.0 | 12.0 | 0.00 | 0.00 | 0.00 | 34 | 1007.6 |
| 20260902201525 | 65 | 44 | 1.0 | 11.0 | 0.00 | 0.00 | 0.00 | 36 | 1007.6 |
| 20260902200022 | 64 | 36 | 1.0 | 8.0 | 0.00 | 0.00 | 0.00 | 38 | 1007.8 |
| 20260902194524 | 63 | 340 | 2.0 | 8.0 | 0.00 | 0.00 | 0.00 | 37 | 1007.8 |
| 20260902193016 | 62 | 29 | 1.0 | 9.0 | 0.00 | 0.00 | 0.00 | 38 | 1007.9 |
| 20260902191520 | 62 | 337 | 2.0 | 6.0 | 0.00 | 0.00 | 0.00 | 40 | 1008.0 |
| 20260902190019 | 62 | 125 | 0.0 | 3.0 | 0.00 | 0.00 | 0.00 | 40 | 1008.0 |
| 20260902184511 | 61 | 139 | 1.0 | 7.0 | 0.00 | 0.00 | 0.00 | 41 | 1008.1 |
| 20260902183006 | 60 | 30 | 0.0 | 6.0 | 0.00 | 0.00 | 0.00 | 41 | 1008.2 |
| 20260902181502 | 59 | 18 | 1.0 | 12.0 | 0.00 | 0.00 | 0.00 | 44 | 1008.1 |
| 20260902180058 | 58 | 41 | 5.0 | 14.0 | 0.00 | 0.00 | 0.00 | 44 | 1008.2 |
| 20260902174601 | 57 | 275 | 1.0 | 6.0 | 0.00 | 0.00 | 0.00 | 48 | 1008.2 |
| 20260902173051 | 56 | 270 | 1.0 | 9.0 | 0.00 | 0.00 | 0.00 | 51 | 1008.0 |
| 20260902171552 | 56 | 198 | 0.0 | 5.0 | 0.00 | 0.00 | 0.00 | 51 | 1007.9 |
| 20260902170045 | 55 | 198 | 0.0 | 2.0 | 0.00 | 0.00 | 0.00 | 53 | 1007.8 |
| 20260902164543 | 54 | 198 | 0.0 | 2.0 | 0.00 | 0.00 | 0.00 | 55 | 1007.9 |